Location: Newark
(7.0858°N, 171.3717°E)
Time: 00:38:06
(UTC+00:00)

Vanguard 3 - Pass Details

Date: 30 November 2020
Orbit: 508 x 3262 km, 33.3° (Epoch: 19 January)

Event Time Altitude Azimuth Distance (km) Brightness Sun altitude
Exits shadow 14:05:21 17° 87° (E) 3,659 10.6 -61.4°
Drops below altitude 10° 14:08:13 10° 95° (E) 4,483 11.2 -60.8°
Sets 14:13:27 0° 104° (ESE) 5,991 12.0 -59.7°
